Home   Weather   Chico   Past weeks

Flag for USA Past Weather in Chico, California, USA — Yesterday and Last 2 Weeks

Now
66 °F

Clear.


Feels Like: 66 °F
Forecast: 49 / 72 °F
Wind: No wind

Location: Chico Municipal

Current Time: Sep 30, 2016 at 9:56:50 PM

Latest Report: Sep 30, 2016 at 9:15 PM


Visibility: 10 mi

Pressure: 29.97 "Hg

Humidity: 40%

Dew Point: 41 °F

Location of ChicoLocation

Past Weather in Chico — Graph

°F

Chico Temperature Yesterday

Maximum temperature yesterday: 86 °F (at 3:50 PM)
Minimum temperature yesterday: 63 °F (at 4:35 AM)
Average temperature yesterday: 73 °F

High & Low Weather Summary for the Past Weeks

 TemperatureHumidityPressure
High100 °F (Sep 25, 2:47 PM)67% (Sep 16, 5:35 AM)30.16 "Hg (Sep 16, 5:35 AM)
Low50 °F (Sep 23, 6:55 AM)8% (Sep 25, 11:47 AM)29.78 "Hg (Sep 27, 6:55 PM)
Average74 °F31%29.95 "Hg
* Reported Sep 15 8:15 PM — Sep 30 8:55 PM, Chico, Weather by CustomWeather, © 2016

Note: Actual official high and low records may vary slightly from our data, if they occured in-between our weather recording intervals... More about our weather records

Advertising

Chico Weather History for the Previous 24 Hours

Scroll right to see more
 ConditionsComfort  
Time TempWeatherWind HumidityBarometerVisibility
8:55 PM
Fri, Sep 30
66 °FClear.20 mph40%29.96 "Hg10 mi
8:15 PM70 °FClear.15 mph33%29.95 "Hg10 mi
7:55 PM72 °FClear.21 mph29%29.95 "Hg10 mi
7:15 PM73 °FClear.17 mph27%29.94 "Hg10 mi
6:55 PM73 °FClear.21 mph25%29.94 "Hg10 mi
6:15 PM75 °FSunny.17 mph24%29.94 "Hg10 mi
5:55 PM75 °FSunny.16 mph25%29.94 "Hg10 mi
4:49 PM77 °FPartly sunny.14 mph28%29.94 "Hg10 mi
3:51 PM79 °FPartly sunny.N/A26%29.96 "Hg10 mi
2:47 PM81 °FScattered clouds.18 mph23%29.97 "Hg10 mi
1:55 PM79 °FScattered clouds.16 mph26%29.99 "Hg25 mi
12:47 PM75 °FScattered clouds.17 mph25%30.02 "Hg25 mi
11:50 AM73 °FScattered clouds.13 mph29%30.03 "Hg25 mi
10:51 AM70 °FScattered clouds.12 mph35%30.04 "Hg25 mi
9:57 AM66 °FBroken clouds.12 mph40%30.04 "Hg25 mi
8:55 AM63 °FBroken clouds.7 mph42%30.04 "Hg40 mi
7:55 AM59 °FBroken clouds.7 mph48%30.04 "Hg10 mi
6:55 AM59 °FPassing clouds.7 mph48%30.03 "Hg10 mi
5:35 AM59 °FClear.9 mph45%30.02 "Hg10 mi
5:15 AM59 °FClear.9 mph45%30.01 "Hg10 mi
4:55 AM59 °FClear.7 mph45%30.02 "Hg10 mi
4:35 AM61 °FClear.9 mph42%30.01 "Hg10 mi
4:15 AM61 °FClear.12 mph42%30.01 "Hg10 mi
3:55 AM63 °FClear.10 mph39%30.01 "Hg10 mi
3:35 AM63 °FClear.7 mph39%30.01 "Hg10 mi
3:15 AM64 °FClear.No wind37%30.00 "Hg10 mi
2:55 AM66 °FClear.8 mph32%30.00 "Hg10 mi
2:35 AM66 °FClear.7 mph32%30.00 "Hg10 mi
2:15 AM66 °FClear.7 mph35%30.00 "Hg10 mi
1:55 AM68 °FClear.9 mph33%29.99 "Hg10 mi
1:35 AM68 °FClear.9 mph33%29.99 "Hg10 mi
1:15 AM68 °FClear.13 mph33%29.98 "Hg10 mi
12:55 AM68 °FClear.12 mph33%29.99 "Hg10 mi
12:15 AM68 °FClear.No wind35%29.99 "Hg10 mi
11:55 PM
Thu, Sep 29
70 °FClear.No wind33%29.99 "Hg10 mi
11:35 PM72 °FClear.No wind31%29.99 "Hg10 mi
11:15 PM73 °FClear.10 mph31%29.98 "Hg10 mi
10:55 PM73 °FClear.8 mph29%29.98 "Hg10 mi
10:35 PM75 °FClear.9 mph29%29.98 "Hg10 mi
10:15 PM75 °FClear.8 mph29%29.97 "Hg10 mi
9:55 PM77 °FClear.13 mph28%29.97 "Hg10 mi
9:15 PM79 °FClear.13 mph26%29.97 "Hg10 mi
Weather by CustomWeather, © 2016

See weather overviewHow to use our weather pages